User: anonymous   Login
Location: Riverside
(39.1734°N, 77.8561°W)
Time: 21:14:28
(UTC+00:00)
Language:

ESTCUBE 1 - Orbit

View from above orbital plane
View from above orbital plane
View from above satellite
View from above satellite

Ground track
Ground track

The orbit data is extracted from the following two-line orbital elements,

1 39161U 13021C   19146.13836913  .00000079  00000-0  20370-4 0  9994
2 39161  97.9874 231.4254 0010532  46.6734 313.5361 14.72194937324905
Epoch (UTC): 26 May 2019 03:19:15
Eccentricity: 0.0010532
inclination: 97.9874°
perigee height: 646 km
apogee height: 661 km
right ascension of ascending node: 231.4254°
argument of perigee: 46.6734°
revolutions per day: 14.72194937
mean anomaly at epoch: 313.5361°
orbit number at epoch: 32490

The dashed part of the orbit path shows where the satellite is in the earth's shadow,  

DLR